Location: Clanezzo
(45.7500°N, 9.6000°E)
Time: 05:39:16
(UTC+00:00)

Envisat - Pass Details

Date: 21 January 2022
Orbit: 764 x 765 km, 98.2° (Epoch: 22 May)

Event Time Altitude Azimuth Distance (km) Brightness Sun altitude
Rises 17:01:23 0° 224° (SW) 3,220 7.5 -8.8°
Reaches altitude 10° 17:05:57 10° 262° (W) 2,302 7.0 -9.5°
Maximum altitude 17:06:59 11° 274° (W) 2,264 6.7 -9.7°
Drops below altitude 10° 17:08:01 10° 286° (WNW) 2,305 6.4 -9.9°
Sets 17:12:39 0° 325° (NW) 3,239 6.5 -10.6°
